Weather History for Fargo, ND

Change the Weather History Date:

Friday, November 29, 2013

  Actual Average Record
Temperature  
Mean Temperature 24 °F 21 °F  
Max Temperature 36 °F 29 °F 51 °F (1914)
Min Temperature 12 °F 13 °F -26 °F (1896)
Degree Days  
Heating Degree Days 41 44  
Month to date heating degree days 1056 1041  
Since 1 July heating degree days 1800 1917  
Cooling Degree Days 0 0  
Month to date cooling degree days 0 0  
Year to date cooling degree days 699 551  
Moisture  
Dew Point 14 °F    
Average Humidity 64    
Maximum Humidity 80    
Minimum Humidity 47    
Precipitation  
Precipitation 0.00 in 0.03 in 0.23 in (1927)
Month to date precipitation 0.40 0.97  
Year to date precipitation 30.89 21.75  
Snow  
Snow 0.00 in 0.30 in 2.10 in (1942)
Month to date snowfall 0.3 7.5  
Since 1 July snowfall 0.3 8.2  
Since 1 September snowfall 0.3 8.2  
Snow Depth 0.00 in    
Sea Level Pressure  
Sea Level Pressure 30.23 in    
Wind  
Wind Speed 14 mph (SSE)    
Max Wind Speed 25 mph    
Max Gust Speed 32 mph    
Visibility 10 miles    
Events      
T = Trace of Precipitation, MM = Missing Value Source: NWS Daily Summary

Daily Weather History Graph

Daily Weather History Graph

Search for Another Location

Airport:

Trip Planner

Search our weather history database for the weather conditions in past years. The results will help you decide how hot, cold, wet, or windy it might be!

Date:

Astronomy

Nov. 29, 2013 Rise Set
Actual Time 7:49 AM CST 4:41 PM CST
Civil Twilight 7:15 AM CST 5:15 PM CST
Nautical Twilight 6:37 AM CST 5:53 PM CST
Astronomical Twilight 6:00 AM CST 6:30 PM CST
Moon 3:44 AM CST (11/29) 2:37 PM CST (11/29)
Length of Visible Light 10h 00m
Length of Day
8h 51m
Waning Crescent, 14% of the Moon is Illuminated
Nov 29
Waning Crescent
Dec 2
New
Dec 9
First Quarter
Dec 17
Full
Dec 25
Last Quarter

Hourly Weather History & Observations

Time (CST) Temp. Windchill Dew Point Humidity Pressure Visibility Wind Dir Wind Speed Gust Speed Precip Events Conditions
12:53 AM 14.0 °F 3.9 °F 8.1 °F 77% 30.49 in 10.0 mi SE 6.9 mph - N/A   Clear
1:53 AM 15.1 °F 3.3 °F 8.1 °F 74% 30.47 in 10.0 mi SSE 9.2 mph - N/A   Clear
2:53 AM 16.0 °F 4.4 °F 8.1 °F 71% 30.46 in 10.0 mi SSE 9.2 mph - N/A   Clear
3:53 AM 16.0 °F 4.4 °F 9.0 °F 74% 30.45 in 10.0 mi SSE 9.2 mph - N/A   Clear
4:53 AM 16.0 °F 2.9 °F 9.0 °F 74% 30.43 in 10.0 mi SSE 11.5 mph - N/A   Clear
5:53 AM 17.1 °F 5.0 °F 9.0 °F 71% 30.41 in 10.0 mi SSE 10.4 mph - N/A   Clear
6:53 AM 18.0 °F 4.8 °F 9.0 °F 68% 30.39 in 10.0 mi SSE 12.7 mph - N/A   Partly Cloudy
7:53 AM 18.0 °F 4.2 °F 9.0 °F 68% 30.35 in 10.0 mi SE 13.8 mph 21.9 mph N/A   Clear
8:53 AM 19.9 °F 5.2 °F 10.0 °F 65% 30.34 in 10.0 mi SE 17.3 mph 23.0 mph N/A   Clear
9:53 AM 21.9 °F 6.9 °F 10.9 °F 63% 30.30 in 10.0 mi SE 19.6 mph 29.9 mph N/A   Clear
10:53 AM 27.0 °F 13.2 °F 12.9 °F 56% 30.26 in 10.0 mi SSE 20.7 mph 27.6 mph N/A   Clear
11:53 AM 30.0 °F 17.5 °F 14.0 °F 51% 30.23 in 10.0 mi South 19.6 mph 26.5 mph N/A   Clear
12:53 PM 32.0 °F 19.2 °F 15.1 °F 50% 30.19 in 10.0 mi SSE 23.0 mph 27.6 mph N/A   Clear
1:53 PM 34.0 °F 22.4 °F 17.1 °F 50% 30.13 in 10.0 mi South 20.7 mph 29.9 mph N/A   Clear
2:53 PM 36.0 °F 26.3 °F 18.0 °F 48% 30.10 in 10.0 mi South 16.1 mph 31.1 mph N/A   Clear
3:53 PM 35.1 °F 25.2 °F 18.0 °F 50% 30.11 in 10.0 mi SSE 16.1 mph 26.5 mph N/A   Clear
4:53 PM 33.1 °F 22.6 °F 18.0 °F 54% 30.09 in 10.0 mi SSE 16.1 mph - N/A   Clear
5:53 PM 32.0 °F 22.5 °F 18.0 °F 56% 30.09 in 10.0 mi SSE 12.7 mph - N/A   Clear
6:53 PM 30.9 °F 21.2 °F 18.0 °F 59% 30.08 in 10.0 mi SSE 12.7 mph - N/A   Clear
7:53 PM 30.0 °F 20.0 °F 18.0 °F 61% 30.08 in 10.0 mi SSE 12.7 mph - N/A   Clear
8:53 PM 28.9 °F 18.2 °F 18.0 °F 64% 30.05 in 9.0 mi SSE 13.8 mph - N/A   Clear
9:53 PM 28.0 °F 18.6 °F 18.0 °F 66% 30.04 in 9.0 mi South 10.4 mph - N/A   Clear
10:53 PM 27.0 °F 17.3 °F 18.0 °F 69% 30.03 in 9.0 mi South 10.4 mph - N/A   Clear
11:53 PM 28.0 °F 19.3 °F 19.0 °F 69% 30.04 in 8.0 mi South 9.2 mph - N/A   Clear